ONEWEB-0221 (48789 NORAD) Tracking and Keplerian Element Data

This shows tracking and keplerian element data for the satellite.

Feedback or suggestion? Click here.




ElementValue
Catalog48789
NameONEWEB-0221
Epoch Orbit355
Epoch Day214.91667824
Epoch Year2021
RAAN254.7206
Inclination87.6167
Eccentricity0.0011533
Argument of Perigee25.0795
Mean Anonmoly183.6615
Mean Motion14.39517979
Decay Rate-0.01427852
L11 48789U 21045Y 21214.91667824 -.01427852 00000-0 -49061+0 0 9991
L22 48789 87.6167 254.7206 0011533 25.0795 183.6615 14.39517979 3558

Live tracking and technical data element details for ONEWEB-0221 (NORAD 48789). ONEWEB-0221 can be tracked NOW for your location showing map with azimuth and elevation plus other details from your city location.

Track the satellite on the map from your city or location and see movement details for azimuth, elevation, latitude, longitude, range, height, and movement on the map or in text.







IsCatalogInMostPopularTable: catalog: 48789, numindb: 20
Update: records affected: 1



GetName: 48789 ONEWEB-0221

Hit Count: updated at: Tue, 03 Aug 2021 23:59:22 GMT